Orbital Elements at Epoch 2459000.5 (2020-May-31.0) TDB
Reference: JPL 17 (heliocentric ecliptic J2000)
Element | Value | Uncertainty (1-sigma) | Units |
e | .169858859256938 | 4.2186e-08 | |
a | 2.616970621248329 | 1.4201e-08 | au |
q | 2.172454976814168 | 1.0828e-07 | au |
i | 5.552805176983488 | 4.9299e-06 | deg |
node | 61.10124968491478 | 5.0989e-05 | deg |
peri | 341.8381418388022 | 5.3381e-05 | deg |
M | 63.38744732413534 | 1.5396e-05 | deg |
tp | 2458728.231461884143 (2019-Sep-01.73146188) | 6.5706e-05 | TDB |
period | 1546.310474067441 4.23 | 1.2587e-05 3.446e-08 | d yr |
n | .2328122366351499 | 1.8951e-09 | deg/d |
Q | 3.061486265682491 | 1.6614e-08 | au |
|
| | Orbit Determination Parameters
Additional Information
|